TimeEDT,TemperatureF,Dew PointF,Humidity,Sea Level PressureIn,VisibilityMPH,Wind Direction,Wind SpeedMPH,Gust SpeedMPH,PrecipitationIn,Events,Conditions,WindDirDegrees,DateUTC
12:53 AM,39.9,30.9,70,29.77,10.0,SW,6.9,-,N/A,,Overcast,230,2014-04-09 04:53:00
1:53 AM,39.9,32.0,73,29.77,10.0,SSW,4.6,-,N/A,,Overcast,210,2014-04-09 05:53:00
2:53 AM,39.0,32.0,76,29.77,10.0,SW,4.6,-,N/A,,Overcast,230,2014-04-09 06:53:00
3:53 AM,37.0,32.0,82,29.77,10.0,SSW,4.6,-,N/A,,Mostly Cloudy,200,2014-04-09 07:53:00
4:53 AM,33.1,30.0,89,29.78,8.0,West,3.5,-,N/A,,Mostly Cloudy,260,2014-04-09 08:53:00
5:53 AM,35.1,30.9,85,29.82,9.0,West,3.5,-,N/A,,Scattered Clouds,260,2014-04-09 09:53:00
6:53 AM,30.0,28.9,96,29.85,4.0,SSW,3.5,-,N/A,,Clear,200,2014-04-09 10:53:00
7:53 AM,33.1,30.9,92,29.88,5.0,SSW,3.5,-,N/A,,Clear,210,2014-04-09 11:53:00
8:53 AM,39.0,32.0,76,29.89,10.0,Calm,Calm,-,N/A,,Clear,0,2014-04-09 12:53:00
9:53 AM,39.9,30.9,70,29.92,10.0,North,5.8,-,N/A,,Mostly Cloudy,350,2014-04-09 13:53:00
10:26 AM,39.0,32.0,76,29.91,10.0,North,5.8,-,N/A,,Scattered Clouds,350,2014-04-09 14:26:00
10:53 AM,39.0,30.9,73,29.94,10.0,Variable,4.6,-,N/A,,Mostly Cloudy,0,2014-04-09 14:53:00
11:21 AM,41.0,32.0,70,29.93,10.0,North,-9999.0,-,N/A,,Scattered Clouds,0,2014-04-09 15:21:00
11:53 AM,39.9,32.0,73,29.96,10.0,WNW,8.1,-,N/A,,Clear,300,2014-04-09 15:53:00
12:53 PM,43.0,34.0,71,29.96,10.0,NW,9.2,-,N/A,,Clear,320,2014-04-09 16:53:00
1:53 PM,44.1,30.9,60,29.98,10.0,West,9.2,-,N/A,,Clear,260,2014-04-09 17:53:00
2:53 PM,43.0,32.0,65,29.99,10.0,WSW,10.4,-,N/A,,Clear,250,2014-04-09 18:53:00
3:53 PM,44.1,33.1,65,29.97,10.0,WNW,10.4,17.3,N/A,,Clear,300,2014-04-09 19:53:00
4:53 PM,42.1,32.0,67,29.99,10.0,WSW,9.2,-,N/A,,Clear,250,2014-04-09 20:53:00
5:53 PM,43.0,32.0,65,29.99,10.0,SW,11.5,-,N/A,,Clear,230,2014-04-09 21:53:00
6:53 PM,42.1,30.0,62,30.00,10.0,WSW,15.0,-,N/A,,Clear,240,2014-04-09 22:53:00
7:53 PM,41.0,30.0,65,30.01,10.0,WSW,11.5,-,N/A,,Clear,240,2014-04-09 23:53:00
8:53 PM,39.0,28.9,67,30.02,10.0,SW,4.6,-,N/A,,Clear,230,2014-04-10 00:53:00
9:53 PM,35.1,28.9,78,30.04,10.0,West,3.5,-,N/A,,Clear,280,2014-04-10 01:53:00
10:53 PM,33.1,28.0,82,30.03,10.0,South,4.6,-,N/A,,Clear,190,2014-04-10 02:53:00
11:53 PM,37.9,25.0,60,30.02,10.0,South,8.1,-,N/A,,Clear,190,2014-04-10 03:53:00